TimeEDT,TemperatureF,Dew PointF,Humidity,Sea Level PressureIn,VisibilityMPH,Wind Direction,Wind SpeedMPH,Gust SpeedMPH,PrecipitationIn,Events,Conditions,WindDirDegrees,DateUTC
12:54 AM,69.1,54.0,58,30.09,10.0,South,16.1,-,N/A,,Scattered Clouds,180,2014-04-14 04:54:00
1:54 AM,66.9,53.1,61,30.08,10.0,South,13.8,21.9,N/A,,Scattered Clouds,180,2014-04-14 05:54:00
2:54 AM,64.9,53.1,65,30.06,10.0,South,15.0,-,N/A,,Scattered Clouds,180,2014-04-14 06:54:00
3:54 AM,64.0,54.0,70,30.06,10.0,South,10.4,-,N/A,,Scattered Clouds,180,2014-04-14 07:54:00
4:54 AM,63.0,54.0,72,30.05,10.0,South,9.2,-,N/A,,Mostly Cloudy,180,2014-04-14 08:54:00
5:54 AM,62.1,55.0,78,30.04,10.0,South,10.4,-,N/A,,Mostly Cloudy,170,2014-04-14 09:54:00
6:54 AM,62.1,55.0,78,30.06,10.0,South,11.5,-,N/A,,Overcast,190,2014-04-14 10:54:00
7:54 AM,64.0,55.0,73,30.06,10.0,South,18.4,24.2,N/A,,Overcast,190,2014-04-14 11:54:00
8:54 AM,66.0,55.0,68,30.05,10.0,South,19.6,-,N/A,,Overcast,190,2014-04-14 12:54:00
9:54 AM,69.1,55.0,61,30.06,10.0,South,17.3,-,N/A,,Overcast,190,2014-04-14 13:54:00
10:54 AM,73.9,55.0,52,30.05,10.0,South,21.9,27.6,N/A,,Overcast,190,2014-04-14 14:54:00
11:54 AM,73.9,53.1,48,30.03,10.0,SSW,18.4,26.5,N/A,,Overcast,200,2014-04-14 15:54:00
12:54 PM,78.1,53.1,42,30.00,10.0,South,20.7,29.9,N/A,,Mostly Cloudy,190,2014-04-14 16:54:00
1:54 PM,78.1,52.0,40,29.99,10.0,SW,17.3,28.8,N/A,,Overcast,220,2014-04-14 17:54:00
2:54 PM,79.0,51.1,38,29.96,10.0,SSW,15.0,25.3,N/A,,Overcast,210,2014-04-14 18:54:00
3:54 PM,81.0,51.1,35,29.93,10.0,SSW,18.4,25.3,N/A,,Overcast,200,2014-04-14 19:54:00
4:54 PM,78.1,48.9,36,29.92,10.0,SSW,15.0,-,N/A,,Mostly Cloudy,210,2014-04-14 20:54:00
5:54 PM,77.0,52.0,42,29.90,10.0,SW,11.5,-,N/A,,Mostly Cloudy,220,2014-04-14 21:54:00
6:54 PM,73.9,54.0,50,29.88,10.0,South,5.8,-,N/A,,Overcast,190,2014-04-14 22:54:00
7:54 PM,73.0,55.0,53,29.88,10.0,South,8.1,-,N/A,,Overcast,180,2014-04-14 23:54:00
8:54 PM,73.0,57.0,57,29.89,10.0,South,15.0,21.9,N/A,,Mostly Cloudy,190,2014-04-15 00:54:00
9:54 PM,69.1,60.1,73,29.89,10.0,SSW,11.5,-,0.00,,Overcast,200,2014-04-15 01:54:00
10:54 PM,68.0,60.1,76,29.87,10.0,South,6.9,-,N/A,,Overcast,170,2014-04-15 02:54:00
11:54 PM,71.1,57.0,61,29.83,10.0,SSE,10.4,-,N/A,,Mostly Cloudy,160,2014-04-15 03:54:00